Location: Sherrills_Ford_Terrell
(35.6000°N, 80.9830°W)
Time: 12:06:38
(UTC-04:00)

ISS - Visible Passes

Search period start: 28 May 2015 00:00
Search period end: 07 June 2015 00:00
Orbit: 399 x 404 km, 51.6° (Epoch: 28 May)

Date Brightness Start Highest point End Pass type
(mag) Time Alt. Az. Time Alt. Az. Time Alt. Az.
29 May -0.6 05:30:17 10° NNW 05:32:59 23° NNE 05:35:41 10° E visible
30 May -0.1 04:37:37 10° N 04:39:30 15° NNE 04:41:27 10° ENE visible
30 May -1.6 21:15:13 10° SSE 21:16:58 14° SE 21:18:50 10° E visible
30 May -2.2 22:50:02 10° WSW 22:53:08 43° NW 22:56:15 10° NE visible
31 May -2.4 05:19:48 10° NW 05:23:00 51° NE 05:26:11 10° ESE visible
31 May -3.5 21:56:37 10° SW 21:59:51 86° SE 22:03:06 10° NE visible
31 May 0.1 23:35:02 10° NW 23:36:41 13° NNW 23:38:16 10° N visible
01 Jun -1.0 04:26:48 10° NNW 04:29:37 26° NNE 04:32:28 10° E visible
01 Jun -2.8 21:03:39 10° SSW 21:06:38 36° SE 21:09:40 10° ENE visible
01 Jun -0.5 22:40:37 10° W 22:43:09 20° NNW 22:45:40 10° NNE visible
02 Jun -0.1 03:34:02 10° NNW 03:36:08 16° NNE 03:38:18 10° ENE visible
02 Jun -3.3 05:09:37 10° NW 05:12:49 57° SW 05:16:00 10° SE visible
02 Jun -1.6 21:46:41 10° WSW 21:49:42 36° NW 21:52:45 10° NNE visible
03 Jun 0.4 02:41:50 10° N 02:42:33 11° NNE 02:43:21 10° NE visible
03 Jun -2.9 04:16:19 10° NW 04:19:32 62° NE 04:22:46 10° ESE visible
03 Jun 0.2 22:31:57 10° NW 22:33:16 12° NNW 22:34:31 10° N visible
04 Jun -1.4 03:23:14 10° NNW 03:28:42 13° E 03:29:07 10° E visible
04 Jun -2.1 05:02:30 21° SW 05:02:30 21° SW 05:04:59 10° S visible
04 Jun -0.2 21:37:19 10° WNW 21:39:41 18° NNW 21:42:02 10° NNE visible
05 Jun 0.1 02:30:22 10° NNW 02:30:31 11° NNW 02:30:31 11° NNW visible
06 Jun 0.3 01:37:53 10° N 01:37:54 10° N 01:37:54 10° N visible
06 Jun 0.2 21:28:55 10° NW 21:29:46 11° NNW 21:30:33 10° N visible
